This is the latest recevied weather packets stored in our database for station/object F4IVW-13. If no packets are shown the sender has not sent any weather packets the latest 10 day(s).
| Time | Temp. | Humidity | Pressure | Rain* | Wind** | Luminosity | Snow |
|---|---|---|---|---|---|---|---|
| 1777476337 | 22.78° C | 99% | 1010.2 hPa | 0 mm | - | 6 W/m² | - |
| 1777476022 | 22.78° C | 99% | 1010.3 hPa | 0 mm | - | 8 W/m² | - |
| 1777475705 | 22.78° C | 99% | 1010.4 hPa | 0 mm | - | 6 W/m² | - |
| 1777475396 | 22.78° C | 99% | 1010.5 hPa | 0 mm | - | 7 W/m² | - |
| 1777475067 | 22.78° C | 99% | 1010.5 hPa | 0 mm | - | 10 W/m² | - |
| 1777474750 | 22.78° C | 99% | 1010.5 hPa | 0 mm | - | 11 W/m² | - |
| 1777474433 | 22.78° C | 99% | 1010.5 hPa | 0 mm | - | 12 W/m² | - |
| 1777474118 | 22.22° C | 99% | 1010.4 hPa | 0 mm | - | 11 W/m² | - |
| 1777473798 | 21.67° C | 99% | 1010.4 hPa | 0 mm | - | 12 W/m² | - |
| 1777473492 | 21.11° C | 99% | 1010.4 hPa | 0 mm | - | 14 W/m² | - |
| 1777473163 | 20.56° C | 99% | 1010.4 hPa | 0 mm | - | 16 W/m² | - |
| 1777472846 | 20.56° C | 99% | 1010.3 hPa | 0 mm | - | 15 W/m² | - |
| 1777472527 | 20° C | 99% | 1010.4 hPa | 0 mm | - | 13 W/m² | - |
| 1777472210 | 19.44° C | 99% | 1010.5 hPa | 0 mm | - | 13 W/m² | - |
| 1777471892 | 19.44° C | 99% | 1010.4 hPa | 0 mm | - | 10 W/m² | - |
| 1777471584 | 19.44° C | 99% | 1010.5 hPa | 0 mm | - | 7 W/m² | - |
| 1777471258 | 19.44° C | 99% | 1010.4 hPa | 0 mm | - | 7 W/m² | - |
| 1777470943 | 19.44° C | 99% | 1010.5 hPa | 0 mm | - | 8 W/m² | - |
| 1777470623 | 19.44° C | 99% | 1010.6 hPa | 0 mm | - | 8 W/m² | - |
| 1777470305 | 19.44° C | 99% | 1010.6 hPa | 0 mm | - | 6 W/m² | - |
| 1777469988 | 20° C | 99% | 1010.6 hPa | 0 mm | - | 5 W/m² | - |
| 1777469680 | 20.56° C | 99% | 1010.6 hPa | 0 mm | - | 6 W/m² | - |
| 1777469354 | 20.56° C | 99% | 1010.5 hPa | 0 mm | - | 7 W/m² | - |
| 1777469037 | 20.56° C | 99% | 1010.6 hPa | 0 mm | - | 9 W/m² | - |
| 1777468720 | 20.56° C | 99% | 1010.6 hPa | 0 mm | - | 11 W/m² | - |
* Rain latest hour (hover to see other rain measurements)
** Current wind speed in m/s (hover to see current wind gust speed)